sat.trackr.live / text

‹ back to catalog

STARLINK-36884

NORAD 68026 · 2026-040M

PAYLOAD ACTIVE UNKNOWN

§ Identity

Operator
Country
US
Launch date
2026-03-01
Launch site
AFWTR
Launch vehicle
Mass (kg)
RCS (m²)

Purposes: comms

External: N2YO · Heavens-Above · Gunter

§ Orbital elements

Epoch: 2026-05-24T20:17:19.506624Z

Period
93.91 min
Inclination
97.2848°
Eccentricity
0.0001861
Mean motion
15.33451029 rev/d
Perigee alt
464.3 km
Apogee alt
466.8 km
Semi-major
6,843.7 km
B*
6.4927e-4
RAAN
93.8622°
Arg perigee
98.0920°
Mean anomaly
262.0534°
Rev number
1,313

§ Raw data

STARLINK-368841 68026U 26040M   26144.84536466  .00020949  00000+0  64927-3 0  99972 68026  97.2848  93.8622 0001861  98.0920 262.0534 15.33451029 13139

JSON: /api/v1/satellites/68026 · /tle

For live sub-satellite position, see the globe view (requires WebGL).

§ Visibility from observer

Set your observer location to see the next 7 days of passes ≥ 10°. The values pass through the URL so the page stays shareable.

No JS? Fill the form by hand. The geolocation button needs JavaScript.